DMSP 5D-3 F19 DEB

Satellite information

Favourite Embed

Satellite Type and Status

DEBRISIN ORBIT

Key statistics

Satellite DMSP 5D-3 F19 DEB at a glance.

Uptime

4051

Days in orbit

Revolutions

≈ 14.3

Per day

Orbit

SSO

Sun Synchronous Orbit

Inclination

98.6

Latest

Satellite identification and parameters

Extended collection of information and parameters for DMSP 5D-3 F19 DEB.

Object identification

Identified? True

Debris? True

Object name: DMSP 5D-3 F19 DEB

International designator: 2014-015E

Object number (NORAD): 43415

Object ID (CCSDS): 43415

Country: UNITED STATES OF AMERICA (US)

Current information (Y/N): Y

RCS size: MEDIUM

Orbital parameters

Period: 100.618 minutes

Inclination: 98.6346 deg

SMA: 7166.019 km

Apoapsis: 794.37 km

Periapsis: 781.397 km

RAAN: 145.3688 deg

Eccentricy: 0.0009052

Argument of periapsis: 166.7617 deg

Mean anomaly: 193.3805 deg

Mean motion: 14.31152276 rev/day

Mean motion (dot): 0.00005334 rev/day2

B* drag term: 0.002036 1/REarth

Two-line elements (TLE)

Creation date: May 6, 2025, 3:54 a.m.

Reference frame: TEME

Reference center: EARTH

Epoch: May 5, 2025, 3:30 p.m. UTC

TLE line 0: 0 DMSP 5D-3 F19 DEB

TLE line 1: 1 43415U 14015E 25125.64599873 .00005334 00000-0 20360-2 0 9992

TLE line 2: 2 43415 98.6346 145.3688 0009052 166.7617 193.3805 14.31152276569786

Live tracking on map

Real-time ground track for satellite DMSP 5D-3 F19 DEB.

In-orbit conjunctions

A list of the most updated potential collisions computed for object DMSP 5D-3 F19 DEB.

Target Orbit TCA Probability of collision Miss distance Type
COSMOS 1570 LEO 2025-03-20 17:11:29 0.0002190507 443.0 (m) PAYLOAD
THORAD AGENA D DEB SSO 2025-03-05 19:42:31 0.0002337186 63.0 (m) DEBRIS
COSMOS 1867 COOLANT LEO 2024-09-26 21:33:52 0.000302737 783.0 (m) DEBRIS

Associated space launch

DMSP-5D3 (Defense Meteorological Satellite Program Block 5D3) is the eleventh and most recent version of the military meteorological satellites of the Defense Meteorological Satellite Program.

DMSP 5D-3 F19 DEB was lifted into orbit during the mission ‘Atlas V 401 | DMSP-5D3 F19’, on board a Atlas V 401 space rocket.

The launch took place on April 3, 2014, 2:46 p.m. from Space Launch Complex 3E.

For more information about the launch, click the button.

Launch to space Atlas V 401 | DMSP-5D3 F19
Atlas V 401 | DMSP-5D3 F19

Agency: N/A

Status: Launch Successful

Launch date: April 3, 2014, 2:46 p.m. UTC

Rocket: Atlas V 401

Launch pad: Space Launch Complex 3E

Location: Vandenberg SFB, CA, USA

...

Latest news about this satellite

There are no fresh news available about this satellite. Check back as we update our databases every day.


Newsletter sign-up

Weekly statistics, charts and insights to help you stay on top of the space industry.